ALPHASAT

Last updated on Mon Sep 07 2026 00:02:58 GMT+0000 (Coordinated Universal Time)

1 39215U 13038A 26249.31154765 .00000122 00000+0 00000+0 0 9993 2 39215 3.0028 0.8087 0003713 187.7138 293.9139 1.00272905 44838
UTC large
Height (km)
Speed (km/s)
/
Latitude / Longitude
Inclination (degrees)
Orbital Period (minutes)
Azimuth
Elevation
Range (km)
Doppler Factor

Next 0 passes for location: London (51.5072 / 0.1276)

No passes found over London.
ALPHASAT